Statistiken

Seite 111 von 349 |< · · [108] [109] [110] [111] [112] [113] [114] · · >|

Die meistgelesenen Zitate

Nr. Zitat Pkte. Bew. Aufr. Mails Kom. Datum
5501 Wer auf des andern Schuhe wartet, bis er ... 1.1667 6 4452 0 0 26.08.05 00:00
5502 Männer verschweigen fremde, Weiber eigene Geheimnisse. ... 0.0000 4 4450 7 0 26.08.05 00:00
5503 Es lastet schwer Volkes Stimme grollerfüllt. ... 0.3571 14 4449 3 5 24.10.05 11:12
5504 Was mit Gewalt gewonnen wird, hat keine Dauer. ... 1.1304 46 4447 3 2 08.03.07 10:47
5505 Die Zeit gibt Bescheid und verrät alle Bosheit. ... 1.0625 16 4445 2 2 26.08.05 00:00
5506 Nüchtern Leben, gutes Leben. ... 0.7692 13 4445 0 1 26.08.05 00:00
5507 Die Gerade geht nicht über die Brücke. ... 0.7143 7 4443 1 0 26.08.05 00:00
5508 Erst schmeicheln, dann kratzen, das schickt ... 0.5714 7 4440 3 4 26.08.05 00:00
5509 Freud und Leid sind nahe Nachbarn. ... 1.2308 13 4439 1 0 26.08.05 00:00
5510 Wo haben wir zusammen die Schweine gehütet? ... 1.0714 14 4438 0 0 26.08.05 00:00
5511 Armut sucht neue Wege. ... 0.7500 20 4438 0 0 26.08.05 00:00
5512 Wer alles will, bekommt nichts. ... 1.8750 16 4437 3 1 26.08.05 00:00
5513 Aus Holz macht man große und kleine Heilige. ... 0.0000 1 4436 0 0 26.08.05 00:00
5514 Neid ist des Glücks Gefährte. ... 0.5385 13 4435 0 0 26.08.05 00:00
5515 Wer Rosen nicht im Sommer bricht, der bricht ... 0.2857 14 4434 0 0 26.08.05 00:00
5516 Hätt' ich Glück und guten Wind, ich führ' ... -0.2000 10 4432 0 0 26.08.05 00:00
5517 Journalisten sind die Geburtshelfer und Totengräber ... 1.4074 27 4430 2 0 04.08.05 18:55
5518 Wer sich nicht vor seiner Frau fürchtet, hat keine. ... 1.3125 16 4430 1 3 23.09.07 14:51
5519 Pfaffenknechte essen im Schweiß; Von Arbeit ... -0.2500 8 4428 0 0 26.08.05 00:00
5520 Geld führt den Krieg. ... 0.5238 21 4427 3 1 26.08.05 00:00
5521 Die Revolution ist noch nicht fertig, wer ... 1.0000 16 4427 0 1 08.02.09 16:11
5522 Im Spiegel sieht man die Gestalt, im Wein das Herz. ... 0.0000 4 4427 0 0 26.08.05 00:00
5523 Die Liebe macht Lappen. ... 0.0000 6 4426 0 1 26.08.05 00:00
5524 Das Wasser ist am besten an der Quelle. ... 1.0000 10 4425 1 0 26.08.05 00:00
5525 Wenn's regnet und die Sonne scheint, so schlägt ... -0.9167 12 4423 1 0 26.08.05 00:00
5526 Morgen, morgen, nur nicht heute, sprechen ... -1.0000 2 4423 0 0 26.08.05 00:00
5527 Morgenrot bringt Wind und Kot. ... -1.0000 4 4422 3 0 26.08.05 00:00
5528 Heutzutage haben die Wissenschaftler mehr ... 1.2400 25 4422 0 3 09.02.08 13:51
5529 Du bist mein Herzblatt, Wenn ich dich sehe, ... 0.5000 2 4416 1 0 26.08.05 00:00
5530 Fische und Frauen sind am besten am Sterz. ... -0.9000 10 4416 0 0 26.08.05 00:00
5531 Die Liebe geht unter sich, nicht über sich. ... 0.7143 7 4413 0 0 26.08.05 00:00
5532 Unbedacht hat manches schon ans Licht gebracht. ... 0.4118 17 4412 1 13 26.08.05 00:00
5533 Brennte Falschheit wie Feuer, So wär' das ... 0.9375 16 4411 6 0 26.08.05 00:00
5534 Wer nicht arbeiten will, Der lass' das ... 1.1538 13 4410 0 0 26.08.05 00:00
5535 Die Weisheitszähne kommen spät und fallen früh wieder aus. ... -0.1667 6 4409 0 0 26.08.05 00:00
5536 Jemand ins Gebet nehmen. ... 1.4198 81 4407 0 3 02.02.06 09:06
5537 Sollten alle Ehebrecher graue Röcke tragen, ... 1.1875 16 4405 2 0 26.08.05 00:00
5538 Wir sind Gottes Utopia. Aber eins im Werden. ... 1.0000 10 4405 0 0 15.01.08 00:08
5539 Bruderliebe Sieht oft trübe. ... -0.5000 18 4404 0 0 26.08.05 00:00
5540 Ein Vater ernährt eher zehn Kinder als zehn ... 0.2500 8 4403 1 0 26.08.05 00:00
5541 Der Große stürzt: seht seinen Günstling fliehn; Der ... 1.2500 8 4403 0 0 04.12.07 18:42
5542 Der Spielmann gehört an die Hochzeit. ... -0.7500 4 4403 0 0 26.08.05 00:00
5543 Ein Wort ist ein Hauch, ein Hauch ist Wind. ... 0.4286 7 4402 2 0 26.08.05 00:00
5544 Eine Stunde Schlaf vor Mitternacht ist besser ... 0.5714 7 4402 0 1 26.08.05 00:00
5545 Ich hätte Adenauer nie gestürzt. Von mir ... 1.0238 42 4401 1 1 11.09.06 11:47
5546 Jokele, geh du voran! Du hast Stiefel und ... 1.0000 2 4400 3 0 26.08.05 00:00
5547 Der Mann taub und die Frau stumm gibt die besten Ehen. ... 0.1000 10 4398 4 0 26.08.05 00:00
5548 Sterben und geboren werden Ist des Menschen ... 0.5000 4 4395 0 0 26.08.05 00:00
5549 Verrat ist angenehm, Verräter verhaßt. ... 0.6154 13 4393 0 0 26.08.05 00:00
5550 Das Angenehme an den Kindern von Verwandten ... 0.8462 13 4392 0 2 25.02.08 15:50

[Favoriten] [Punkte] [Bewertungen] [Aufrufe] [Mails] [Kommentare] [Datum]

Seite 111 von 349 |< · < · [1] [2] [3] [4] [5] [6] [7] [8] [9] [10] [11] [12] [13] [14] [15] [16] [17] [18] [19] [20] [21] [22] [23] [24] [25] [26] [27] [28] [29] [30] [31] [32] [33] [34] [35] [36] [37] [38] [39] [40] [41] [42] [43] [44] [45] [46] [47] [48] [49] [50] [51] [52] [53] [54] [55] [56] [57] [58] [59] [60] [61] [62] [63] [64] [65] [66] [67] [68] [69] [70] [71] [72] [73] [74] [75] [76] [77] [78] [79] [80] [81] [82] [83] [84] [85] [86] [87] [88] [89] [90] [91] [92] [93] [94] [95] [96] [97] [98] [99] [100] [101] [102] [103] [104] [105] [106] [107] [108] [109] [110] [111] [112] [113] [114] [115] [116] [117] [118] [119] [120] [121] [122] [123] [124] [125] [126] [127] [128] [129] [130] [131] [132] [133] [134] [135] [136] [137] [138] [139] [140] [141] [142] [143] [144] [145] [146] [147] [148] [149] [150] [151] [152] [153] [154] [155] [156] [157] [158] [159] [160] [161] [162] [163] [164] [165] [166] [167] [168] [169] [170] [171] [172] [173] [174] [175] [176] [177] [178] [179] [180] [181] [182] [183] [184] [185] [186] [187] [188] [189] [190] [191] [192] [193] [194] [195] [196] [197] [198] [199] [200] [201] [202] [203] [204] [205] [206] [207] [208] [209] [210] [211] [212] [213] [214] [215] [216] [217] [218] [219] [220] [221] [222] [223] [224] [225] [226] [227] [228] [229] [230] [231] [232] [233] [234] [235] [236] [237] [238] [239] [240] [241] [242] [243] [244] [245] [246] [247] [248] [249] [250] [251] [252] [253] [254] [255] [256] [257] [258] [259] [260] [261] [262] [263] [264] [265] [266] [267] [268] [269] [270] [271] [272] [273] [274] [275] [276] [277] [278] [279] [280] [281] [282] [283] [284] [285] [286] [287] [288] [289] [290] [291] [292] [293] [294] [295] [296] [297] [298] [299] [300] [301] [302] [303] [304] [305] [306] [307] [308] [309] [310] [311] [312] [313] [314] [315] [316] [317] [318] [319] [320] [321] [322] [323] [324] [325] [326] [327] [328] [329] [330] [331] [332] [333] [334] [335] [336] [337] [338] [339] [340] [341] [342] [343] [344] [345] [346] [347] [348] [349] · > · >|

Zuletzt gesucht